Theta_e
331 331 331 330 331 333 332 332 333 332 332 332 330 331 331 331 331 331 331 331 330 329 328 328 329 328 328 328 328 327 327 330 332 334 334 334 332 327 325 324 322 321 318 315 313 312 311 309 308 308 308 307 306 306 306 306 306 306 306 306 305 305 306 306 306 306 307 308 308 308 308 309 310 311 313 313 314 314 313 311 308 306 305 305 304
330 332 333 333 333 333 332 333 333 332 332 331 330 331 331 330 330 331 331 331 330 329 328 328 328 328 327 327 328 326 326 329 331 333 334 334 334 331 327 325 323 322 320 319 317 315 314 312 311 310 310 309 308 307 306 306 306 306 306 306 306 306 305 305 306 305 306 307 308 308 308 308 309 310 312 312 313 313 314 312 310 307 306 305 304
330 331 332 332 333 333 333 334 333 333 333 332 330 330 331 330 329 330 331 331 330 329 328 327 327 327 327 326 326 326 326 328 329 331 332 333 333 332 329 325 322 321 320 320 320 318 316 315 314 313 312 312 310 309 307 306 306 306 306 305 305 305 305 305 305 305 305 306 307 308 308 308 309 309 311 312 312 313 313 313 311 309 307 306 305
332 331 332 332 333 333 334 334 334 335 334 333 331 329 329 329 328 330 331 330 330 329 328 327 326 326 326 326 325 326 327 328 328 329 330 331 332 332 331 327 322 320 318 318 320 320 318 317 316 315 314 314 312 311 310 308 307 306 306 305 305 305 305 305 305 305 305 305 306 307 307 308 308 309 309 311 312 312 313 313 313 311 309 307 306
332 332 332 332 334 334 334 334 334 334 333 332 331 330 329 328 328 330 329 328 329 329 328 326 325 326 326 327 326 326 327 327 327 328 329 330 331 332 332 330 325 322 320 318 318 319 319 319 318 316 316 316 314 313 312 311 309 308 306 306 305 305 305 305 305 305 305 305 305 305 306 307 307 308 309 310 311 312 312 313 313 312 310 309 307
333 332 331 332 334 333 332 333 334 333 332 331 331 331 330 330 330 330 330 328 327 328 328 326 326 325 326 327 327 327 327 327 327 328 329 330 330 331 331 330 329 325 322 321 320 320 320 321 320 319 317 317 316 316 315 313 313 311 309 308 306 306 305 305 305 305 305 305 305 305 305 306 307 307 308 309 311 311 312 312 313 313 312 310 308
332 333 332 332 335 333 331 332 333 332 332 332 332 332 332 332 331 331 331 329 327 327 327 326 327 326 327 328 328 328 328 327 327 327 328 329 329 329 330 330 330 329 327 324 322 321 321 323 323 322 321 319 318 317 316 315 315 314 312 311 309 308 306 305 305 305 305 305 305 305 305 305 306 307 308 309 310 311 311 312 312 313 313 312 310
331 333 333 332 334 333 333 332 331 331 332 333 332 331 331 331 331 332 331 330 328 327 327 327 328 328 329 330 329 330 329 328 328 327 327 328 328 329 329 329 329 330 330 330 328 326 324 324 325 325 324 323 321 320 319 317 316 315 314 313 312 311 310 308 306 306 306 305 304 304 305 305 305 306 307 308 309 311 311 312 312 312 313 313 312
330 331 331 332 333 332 332 332 331 331 332 332 332 331 330 330 331 331 331 330 329 328 328 329 330 330 331 330 329 330 330 329 328 328 327 327 327 327 328 329 329 329 330 331 331 330 328 326 326 326 326 325 325 322 321 320 319 317 316 315 314 313 313 312 311 310 309 308 307 305 304 305 305 306 307 308 309 310 311 312 312 312 312 313 312
329 330 329 330 331 332 332 331 331 331 331 330 330 331 331 330 330 329 330 331 330 329 329 330 331 332 332 330 329 329 330 330 330 329 328 327 327 327 327 328 328 329 330 330 331 332 331 329 328 327 327 326 326 325 322 321 321 320 319 319 317 316 315 315 314 313 312 312 311 309 306 306 306 306 306 308 308 310 311 312 312 312 312 312 312
327 328 329 329 330 330 330 330 330 330 329 329 329 330 331 330 330 329 330 330 330 330 330 331 331 331 331 329 329 329 329 329 330 330 329 328 327 328 327 328 328 328 329 330 330 331 332 331 330 329 327 327 327 327 324 322 322 322 322 321 320 320 319 318 317 315 314 313 313 312 310 309 308 308 308 308 308 310 311 312 312 312 312 312 312
324 326 326 325 326 327 328 329 329 329 329 328 328 329 330 330 330 330 330 330 330 330 330 331 331 331 330 329 329 329 328 326 326 329 330 329 328 328 328 327 327 327 328 330 330 331 332 331 331 331 330 329 327 327 326 324 323 324 324 324 324 323 322 322 320 318 316 313 312 312 312 312 311 309 308 309 309 310 311 312 313 312 312 312 312
317 323 322 320 322 325 326 326 327 327 328 328 328 329 329 329 330 331 330 330 330 329 330 330 330 330 329 328 327 326 326 324 324 326 328 329 329 327 327 327 327 327 328 329 329 330 331 331 332 332 332 332 330 328 327 326 325 325 326 326 326 325 324 324 323 321 319 316 313 313 314 315 317 315 311 310 309 309 310 311 313 313 312 312 311
316 320 321 322 322 324 324 324 325 326 326 327 327 328 330 330 330 330 329 329 330 329 329 328 329 330 329 329 327 325 324 323 323 324 323 326 328 327 327 327 327 327 328 328 329 329 330 330 331 332 332 332 331 330 328 326 325 326 326 327 327 327 326 325 325 324 323 320 316 314 313 313 318 320 318 316 312 310 309 310 311 313 313 312 311
320 320 322 323 323 323 323 323 325 324 324 326 326 327 329 329 329 330 329 328 329 329 329 328 329 329 329 328 327 326 325 324 324 324 323 323 325 327 327 327 327 326 327 328 328 329 329 329 329 331 331 331 331 331 330 328 326 325 326 327 327 327 327 327 327 326 325 324 321 318 315 312 313 317 320 321 319 314 310 309 310 311 313 313 312
321 322 322 322 322 322 322 322 323 324 324 325 326 326 328 329 330 330 330 329 329 329 329 329 329 328 328 328 327 327 328 327 325 325 324 323 323 325 326 327 327 326 326 326 326 328 328 328 328 329 330 331 331 331 331 331 330 327 326 326 327 327 328 327 327 327 326 326 324 322 320 316 313 313 318 322 322 319 313 309 309 310 311 313 313
322 322 321 321 321 320 320 321 321 322 322 322 323 324 325 326 328 328 328 328 328 328 329 329 329 329 328 328 329 328 328 326 325 324 324 324 324 325 325 327 327 327 327 326 326 327 327 327 327 328 329 331 331 331 331 331 331 330 328 327 327 327 328 328 328 328 327 327 326 325 324 322 318 314 315 319 323 322 318 312 310 310 310 312 313
322 321 320 321 321 320 320 320 320 321 320 321 321 321 322 323 324 326 326 326 327 328 328 327 328 329 328 328 329 329 328 326 325 325 323 323 324 323 323 325 327 327 327 328 328 327 327 327 327 328 329 330 330 331 331 331 331 330 329 329 328 328 328 328 328 328 328 328 327 326 326 325 323 319 315 316 320 323 322 318 314 311 310 311 312
317 317 317 319 318 318 319 318 318 317 317 318 318 318 319 316 315 320 322 323 326 326 326 326 326 327 327 327 327 327 328 328 327 326 325 326 327 325 323 324 326 327 327 328 329 328 328 329 329 329 330 330 330 330 331 331 330 330 330 329 328 327 327 328 328 328 328 328 328 327 327 326 326 324 321 317 317 319 322 322 319 317 314 311 311
315 316 316 315 313 313 314 315 315 314 314 314 313 313 313 309 306 309 312 314 319 320 323 324 324 325 325 325 326 326 326 327 328 327 326 327 328 328 327 325 324 325 326 326 327 327 328 329 330 329 329 330 330 330 331 331 331 330 330 330 329 327 327 327 327 327 327 328 328 327 327 327 327 327 325 322 319 317 320 322 322 322 320 317 314
312 313 314 312 311 310 310 312 313 313 313 311 309 307 307 306 305 305 305 306 308 310 316 319 319 320 322 322 322 324 324 324 325 325 325 326 327 327 328 327 324 320 322 324 324 326 327 329 329 329 329 329 329 330 330 330 331 331 330 331 331 330 328 327 327 327 327 327 327 328 327 328 328 328 327 326 324 321 320 321 323 323 323 323 321
309 309 311 311 310 310 308 307 309 311 311 310 309 307 306 306 306 306 306 306 304 305 307 310 310 310 313 319 320 321 323 322 322 323 323 324 325 325 325 326 325 322 323 324 322 322 324 325 326 326 327 328 328 328 328 328 329 330 330 330 331 330 329 328 327 327 327 327 327 327 327 328 328 329 328 327 327 325 324 322 322 322 323 324 324
309 308 309 308 307 308 307 306 307 308 311 313 312 310 308 307 307 306 306 306 306 306 305 306 308 307 307 314 318 318 319 320 321 321 321 322 322 323 322 322 322 321 321 321 319 319 321 323 324 324 325 326 327 327 327 327 327 329 329 329 330 330 329 328 327 327 327 327 327 326 327 327 328 328 329 329 328 327 326 325 323 323 322 323 323
311 310 308 307 307 306 306 307 306 306 308 311 312 311 310 308 307 306 307 306 306 306 305 305 309 310 307 307 313 316 317 317 317 318 318 319 319 319 319 318 319 319 319 317 314 313 313 315 318 321 322 323 323 323 323 323 323 324 325 326 327 328 329 328 328 328 327 327 327 326 326 326 327 327 328 329 328 328 328 327 326 325 324 324 323
315 314 309 307 308 307 308 308 306 306 306 306 308 308 309 309 306 306 307 306 306 306 305 304 305 309 310 310 312 314 315 312 311 314 315 315 316 318 318 318 318 318 318 317 315 313 312 312 313 314 315 314 317 321 322 323 323 324 324 324 324 325 326 327 327 326 326 327 328 327 327 326 326 327 327 328 329 329 328 328 327 327 326 326 325
317 317 312 310 312 310 309 309 306 306 306 306 306 305 308 311 308 306 306 306 306 306 305 305 304 304 307 311 312 311 311 311 311 314 316 316 316 317 317 317 317 317 318 318 317 317 317 317 316 316 314 312 316 322 324 325 326 325 325 325 324 323 323 323 323 322 322 325 328 328 328 327 327 327 327 327 328 328 327 327 327 327 326 327 327
317 318 313 311 314 311 308 308 306 306 307 306 307 306 307 310 308 305 306 306 306 306 305 305 304 304 303 306 313 312 308 309 313 314 314 315 314 313 313 315 317 317 318 318 318 318 318 318 318 318 317 316 317 320 321 321 323 323 323 323 323 321 321 321 321 320 320 323 326 328 328 328 328 327 327 327 327 327 327 327 327 327 326 327 327
318 318 314 311 312 310 309 309 307 307 307 306 308 308 306 309 308 306 306 306 306 306 306 306 304 305 303 304 312 312 304 305 310 310 309 309 311 312 313 314 315 316 317 317 316 317 318 318 319 319 319 318 318 319 319 319 319 319 319 320 319 317 317 318 319 321 322 322 323 326 327 327 328 328 327 327 327 327 326 326 327 327 327 327 326
318 318 314 310 311 310 309 310 308 308 308 307 309 308 307 309 308 307 307 306 306 306 306 306 305 305 304 303 308 309 304 304 306 305 304 304 307 312 313 313 313 314 315 316 316 317 318 318 318 318 318 318 319 320 321 321 320 319 320 320 319 319 319 318 319 321 323 323 323 323 325 326 327 328 328 327 327 327 327 326 326 326 327 327 326
318 317 314 311 311 310 310 310 308 309 308 308 309 308 308 311 309 308 308 306 307 307 305 306 305 305 305 304 306 306 303 303 303 303 303 303 305 309 312 313 313 313 314 314 314 313 315 317 317 317 318 318 319 320 320 319 319 319 319 317 317 318 318 317 318 318 319 322 324 323 324 324 326 327 328 328 328 327 327 326 326 326 326 326 326
318 317 314 312 312 311 311 311 309 310 309 309 309 308 310 312 310 309 309 307 309 309 306 305 305 305 305 304 305 306 303 303 304 303 302 302 304 306 308 310 311 312 313 314 313 310 310 313 315 316 316 317 317 317 317 317 316 315 314 313 313 315 316 316 316 315 313 317 320 322 323 323 324 326 326 327 327 328 327 327 326 326 326 326 326
318 318 315 314 314 312 312 312 311 311 310 309 310 309 310 311 310 311 311 309 311 311 309 307 305 305 306 306 306 306 304 304 305 304 304 304 303 303 305 307 309 311 312 313 314 312 310 311 312 312 313 314 315 315 315 315 315 314 314 315 316 316 316 316 315 314 314 314 315 317 320 321 323 324 326 326 327 327 328 327 327 327 326 326 326
319 318 316 315 316 316 315 315 313 312 311 311 311 310 311 311 311 312 312 309 310 313 311 308 306 306 305 306 307 306 304 304 304 304 306 306 304 304 305 307 308 310 311 312 313 313 312 312 313 312 313 313 313 314 314 314 315 315 315 316 315 314 314 314 313 313 315 315 315 316 316 317 319 322 324 326 326 326 327 327 327 326 326 326 326
319 319 317 317 318 318 318 318 317 316 314 313 313 311 312 313 312 311 311 309 310 312 311 309 308 308 305 305 307 306 304 304 304 304 306 305 305 306 306 306 306 307 308 310 310 311 311 311 312 312 312 312 313 313 313 313 314 314 313 313 313 312 313 313 313 313 315 316 318 320 319 317 316 318 322 325 326 326 326 326 326 326 326 326 326
320 319 319 318 318 319 318 318 318 317 316 315 315 313 313 313 312 311 310 309 310 311 310 309 310 310 307 305 306 306 305 304 304 304 305 305 305 305 305 304 304 304 305 306 307 308 309 310 310 311 311 311 312 312 313 313 313 313 312 312 312 312 312 312 313 313 315 316 318 318 318 317 315 315 318 322 325 326 327 326 326 326 326 326 326
320 320 320 319 319 319 319 319 319 318 318 317 316 315 314 313 313 312 311 310 310 310 309 309 310 309 307 305 306 306 306 305 304 304 305 305 304 302 302 303 304 305 305 306 307 308 309 310 310 310 310 310 311 311 311 311 311 311 311 312 312 312 312 312 312 313 313 315 316 317 317 317 317 315 314 317 321 324 325 326 326 326 326 326 326
321 320 320 320 319 319 319 319 319 319 318 318 317 316 315 314 314 313 313 312 310 310 310 310 309 308 306 305 305 306 305 304 304 304 304 303 301 300 300 301 303 304 304 305 305 306 307 307 307 308 309 309 310 310 310 310 310 310 310 311 311 311 312 312 311 311 311 312 313 315 316 316 317 316 312 310 313 317 320 323 325 326 326 326 326
322 322 321 321 320 320 320 320 320 320 319 318 318 317 316 315 314 314 313 312 311 311 310 309 308 307 306 305 304 304 304 304 304 303 303 301 300 299 299 299 300 301 302 302 303 304 306 306 306 307 308 308 309 309 309 309 310 310 310 310 311 311 311 311 311 311 310 310 310 311 313 313 313 311 309 307 307 310 313 316 319 322 324 325 326
323 323 322 322 322 321 321 321 320 320 319 319 318 317 317 316 315 314 313 312 312 311 310 309 308 307 306 305 304 303 303 303 303 303 302 300 299 298 298 298 298 299 301 302 303 305 306 307 307 307 308 308 308 308 309 309 310 310 310 310 311 311 311 312 312 312 313 313 312 312 313 314 313 310 308 306 306 306 308 310 312 315 317 319 321
324 323 323 322 322 322 321 321 321 320 320 319 318 318 317 316 316 315 314 312 312 311 310 309 308 307 305 304 303 303 303 303 303 303 302 300 298 297 297 296 296 297 298 299 302 305 306 307 307 308 308 308 308 308 308 309 310 310 310 311 311 312 313 313 313 313 313 314 315 315 315 316 317 317 314 310 307 306 306 306 308 310 313 314 315
323 323 323 322 322 321 321 321 320 320 320 320 319 318 317 316 315 314 313 312 311 310 310 309 308 307 305 304 303 303 303 303 303 303 302 301 299 298 297 296 295 295 296 296 299 303 305 306 306 307 307 308 308 308 308 309 310 310 311 311 311 311 311 311 311 310 310 311 312 313 314 314 316 318 317 316 313 311 310 310 309 309 310 311 312
324 323 323 322 321 321 321 320 320 320 320 319 319 318 317 316 315 314 313 312 311 310 309 308 307 306 305 304 303 303 303 303 304 304 303 302 300 299 297 296 295 295 295 296 297 299 301 304 305 305 306 306 307 307 308 308 309 309 309 310 310 310 310 310 310 310 310 311 311 312 313 313 314 315 317 317 317 316 316 315 313 310 309 311 313
320 323 323 322 321 321 320 320 320 320 319 318 318 317 316 316 315 313 312 311 311 310 309 308 307 305 304 304 303 303 303 303 302 302 301 301 300 299 297 296 296 296 296 296 296 296 298 299 300 302 303 305 305 306 306 307 307 308 308 309 309 310 310 311 311 311 310 311 312 313 314 314 315 315 316 316 317 317 317 317 316 314 313 313 315
315 318 319 320 320 320 320 320 320 319 318 318 317 316 316 316 314 312 311 311 311 309 308 307 306 305 304 303 303 303 302 301 300 299 298 298 298 297 297 297 296 296 296 296 296 297 296 297 298 299 301 302 304 305 306 307 307 307 308 308 309 309 309 309 309 310 309 310 311 312 313 314 315 315 316 316 316 317 318 318 319 319 317 316 315
317 316 316 317 319 319 319 319 319 319 318 317 316 316 316 315 314 313 312 310 309 308 307 306 305 304 304 303 303 301 300 298 297 297 297 297 297 297 297 297 297 297 297 297 297 297 297 297 297 297 298 299 299 301 303 304 305 306 306 307 307 307 307 307 307 308 309 309 310 311 312 312 313 314 314 315 315 316 317 317 318 319 319 318 316
318 317 316 315 316 318 318 318 318 318 318 316 315 315 315 315 315 313 310 309 309 308 307 305 305 304 304 303 301 299 297 296 295 296 296 297 297 297 297 297 297 297 298 297 297 297 297 297 298 298 298 298 298 298 299 301 302 303 304 304 304 305 305 305 306 306 307 307 307 309 310 310 311 312 312 313 314 314 315 316 317 317 317 317 317
316 317 316 313 314 317 318 317 317 317 317 316 315 315 315 315 314 311 309 309 308 307 306 305 304 304 302 300 298 297 296 295 295 296 296 296 296 296 296 296 296 297 297 297 297 298 298 298 299 299 299 299 299 299 299 300 300 300 301 301 302 302 303 303 303 304 304 304 304 305 306 307 308 311 311 312 313 313 313 315 315 316 315 315 315
315 316 315 313 313 316 317 317 316 316 316 315 315 315 314 313 311 309 308 308 307 306 305 304 303 301 299 297 297 296 295 295 296 295 296 296 296 296 296 296 296 296 297 297 297 297 297 298 298 298 299 299 299 299 299 299 299 299 299 299 300 300 300 301 301 302 303 304 304 304 304 305 307 308 310 310 311 312 313 314 314 315 315 315 315
315 315 315 314 315 316 317 316 316 316 315 314 314 313 312 310 309 308 307 307 306 304 303 302 300 300 298 297 296 296 296 296 296 296 296 296 296 296 296 296 296 296 296 296 296 297 297 297 297 297 297 298 298 298 299 299 299 299 299 298 298 298 299 299 301 301 302 303 304 305 305 306 306 307 308 308 309 311 312 313 314 314 315 315 315
314 314 314 315 315 316 315 315 315 315 314 312 311 310 309 308 308 307 306 305 303 300 300 300 299 300 299 298 297 296 296 297 297 297 297 296 296 296 295 295 295 295 296 296 296 296 296 296 296 296 296 296 297 297 297 297 297 297 298 298 298 297 298 298 299 300 301 302 303 304 305 306 307 307 308 309 310 311 311 312 313 313 314 314 314
314 313 313 313 314 314 314 313 313 312 311 310 309 308 307 307 307 306 305 301 299 298 299 299 299 299 299 298 298 297 297 298 297 297 296 296 295 295 295 294 294 295 295 295 295 295 295 295 295 296 296 296 296 296 296 296 296 296 296 296 296 296 297 297 298 299 300 301 301 302 303 305 306 307 308 309 310 310 311 312 312 312 314 314 314
Wind_Speed
12 12 11 10 10 11 11 12 11 9 10 10 10 12 10 8 8 8 8 7 6 7 7 8 10 11 11 10 10 10 10 9 10 10 10 9 9 9 8 7 7 6 5 6 5 4 4 4 4 4 3 4 4 4 5 5 6 5 5 5 5 5 5 5 4 4 4 3 2 2 1 1 2 4 5 7 8 9 11 11 12 12 12 11 11
11 11 10 10 11 11 11 11 10 9 10 11 12 13 10 8 10 9 8 7 7 7 7 8 9 10 11 12 11 10 10 10 10 10 10 10 9 10 8 7 6 5 5 5 6 5 4 4 4 4 4 4 4 4 5 6 7 7 7 6 6 6 6 6 5 5 5 4 4 3 2 1 0 1 3 5 6 7 9 10 10 11 11 11 11
12 11 10 10 12 11 9 10 10 10 11 12 13 14 13 13 13 10 9 9 7 6 7 8 9 9 11 13 12 10 10 11 10 10 11 10 11 11 9 8 6 5 5 4 5 5 5 4 4 5 4 4 4 5 6 6 7 8 8 8 8 7 6 6 6 5 5 5 5 4 4 3 2 1 1 2 4 5 7 8 9 9 10 10 10
12 12 11 11 11 9 9 10 9 9 11 13 13 14 16 16 15 13 12 11 9 7 7 8 9 9 10 13 14 12 11 11 11 11 11 11 11 10 9 10 8 5 5 6 6 5 4 4 5 5 5 5 5 5 6 7 7 8 9 9 9 9 8 7 7 7 7 6 6 6 5 5 4 3 2 0 1 3 4 6 7 8 8 9 9
10 11 12 11 9 9 10 10 10 11 13 13 13 13 15 15 16 15 14 13 11 9 9 9 9 10 10 12 13 13 12 11 12 12 12 12 11 10 10 10 9 8 7 7 7 6 5 4 4 5 5 5 5 5 6 6 7 7 8 9 10 10 9 9 8 8 8 8 7 7 7 6 6 5 4 3 1 0 2 4 5 6 7 7 7
9 10 12 11 10 12 13 11 11 13 14 12 11 11 13 14 15 14 13 15 15 12 11 10 9 11 11 12 13 13 13 12 12 13 13 13 12 11 10 10 11 12 10 8 8 8 6 4 4 4 4 4 4 5 5 5 5 6 7 8 9 9 10 10 9 9 9 9 9 8 8 7 7 7 6 5 4 2 1 1 3 4 5 6 6
8 10 11 10 10 13 13 12 12 13 12 11 10 10 12 14 14 13 10 13 15 13 13 11 10 11 11 11 12 12 13 12 12 13 13 14 13 12 11 11 11 12 11 11 10 9 7 6 5 4 3 3 3 4 3 4 4 5 6 6 7 8 9 9 10 10 9 9 10 10 9 9 9 8 8 7 6 4 3 1 0 2 3 4 5
7 9 10 10 10 11 11 12 13 12 11 10 10 10 11 13 14 14 10 9 11 12 12 10 9 11 11 11 12 12 12 12 13 13 13 14 14 14 13 12 11 11 11 10 10 10 9 8 7 5 3 3 2 3 3 3 4 4 4 5 5 6 7 8 9 9 9 9 10 10 11 10 10 10 9 9 7 6 5 3 2 1 1 2 3
3 5 6 7 9 9 10 12 12 12 11 10 10 10 10 12 14 15 12 10 10 11 11 10 9 11 12 11 11 11 11 12 12 13 13 14 15 15 14 14 13 13 12 11 10 10 10 9 8 7 5 4 3 3 3 3 3 4 4 4 5 5 5 5 6 7 7 8 9 10 11 12 12 11 10 10 9 8 7 5 4 3 2 0 2
3 3 4 5 6 7 9 10 10 11 11 11 10 10 11 11 12 14 15 13 12 11 10 11 11 10 11 11 10 11 10 10 11 12 13 14 15 16 15 15 14 14 13 13 12 11 11 11 10 9 8 6 5 4 4 4 4 4 5 5 5 5 4 4 4 4 6 7 7 8 10 12 13 13 12 11 10 9 8 7 6 5 4 2 1
3 4 4 4 4 5 7 7 7 8 8 10 11 11 11 11 11 14 16 15 13 12 10 11 12 11 11 12 12 12 11 9 9 10 13 14 15 15 15 15 14 14 14 13 13 12 13 14 12 13 12 10 8 6 5 5 5 4 5 5 5 5 4 3 2 3 4 6 6 7 9 11 12 13 13 12 11 10 10 8 7 6 5 4 3
3 4 5 5 4 5 7 7 6 6 5 7 10 11 11 11 12 14 16 16 15 14 12 12 13 13 14 14 13 11 11 11 11 11 10 11 13 14 14 15 15 15 15 14 13 13 13 14 13 14 13 12 11 10 8 7 6 5 4 4 4 5 5 3 2 1 3 4 5 7 8 9 10 11 12 12 12 11 10 9 8 7 6 5 5
4 3 4 5 4 4 7 6 5 5 5 5 7 9 10 10 11 11 13 14 14 14 14 13 13 14 14 14 15 14 13 12 13 15 12 9 10 13 13 15 15 15 15 14 14 13 13 13 13 13 12 12 13 12 11 10 9 8 6 5 4 4 4 3 2 1 1 2 4 6 7 8 9 9 9 10 12 12 11 10 9 8 7 6 5
3 2 0 2 2 2 4 4 3 4 5 4 5 7 8 8 8 8 9 10 11 13 14 15 14 13 10 11 15 16 15 14 14 17 17 14 13 12 13 14 14 14 14 14 13 13 13 13 13 13 12 12 14 15 14 14 13 11 9 8 6 6 5 4 3 3 2 1 2 5 7 8 9 9 8 8 9 10 12 11 10 9 7 7 6
1 2 2 1 0 1 2 3 3 3 3 2 3 4 4 4 4 6 6 6 8 9 11 14 16 14 11 10 13 14 14 14 14 16 19 19 16 13 12 13 14 15 14 13 13 14 14 13 13 13 13 12 13 15 15 15 16 14 12 11 10 9 9 8 6 6 5 3 3 5 7 8 9 11 10 8 7 8 10 11 12 11 9 8 7
3 4 3 1 2 2 1 2 3 3 4 4 4 4 3 2 2 2 1 3 5 5 6 9 11 11 10 9 10 11 9 8 9 12 16 17 16 15 14 13 12 13 13 13 14 14 14 14 14 13 12 13 13 14 14 14 16 15 14 14 14 13 13 12 10 10 8 6 5 5 7 8 9 11 12 11 9 8 8 10 11 12 11 10 9
5 5 4 3 3 3 1 2 2 3 4 4 4 5 5 4 4 5 4 0 2 1 2 4 6 8 9 8 7 9 9 7 6 7 10 11 10 12 14 12 9 10 12 13 13 13 13 13 15 15 14 14 14 14 14 14 16 17 16 16 17 17 16 15 14 13 12 11 10 9 9 8 8 9 12 13 12 10 9 9 10 11 12 12 11
5 3 4 5 4 3 3 2 2 2 2 2 2 4 4 3 4 6 6 3 1 2 2 1 2 5 8 11 10 9 9 9 7 5 6 6 5 7 9 10 9 10 11 12 11 13 14 12 13 14 14 15 15 14 14 15 15 17 17 17 18 18 18 17 16 15 15 15 13 12 12 11 10 9 10 13 13 13 12 10 10 10 11 12 12
5 4 4 5 4 4 4 3 3 3 3 3 3 3 3 2 2 2 3 4 3 3 5 4 3 1 3 7 8 8 8 8 7 6 5 3 3 5 6 8 10 11 12 12 11 12 13 13 13 12 12 13 15 14 15 15 15 16 18 19 18 18 17 18 17 17 17 17 17 16 15 14 13 11 9 11 13 14 14 13 11 10 11 11 12
5 5 5 5 5 6 6 6 6 5 5 5 4 4 4 3 3 2 1 1 2 2 4 5 4 3 4 5 5 4 4 4 4 6 6 4 4 4 4 5 8 10 12 13 14 13 13 12 12 12 12 12 12 13 14 14 13 14 16 18 18 18 17 16 17 18 18 19 20 19 18 17 16 14 11 10 11 13 14 15 14 12 12 12 12
5 6 5 5 6 7 8 8 7 6 5 5 6 7 8 8 8 6 5 4 2 2 2 2 1 1 2 4 5 5 5 4 4 3 5 6 6 6 5 6 7 9 11 12 14 15 15 15 15 15 14 14 14 14 15 15 13 14 15 15 17 17 17 18 18 19 21 21 21 21 21 19 18 17 15 13 12 12 13 15 16 15 14 13 13
5 6 6 5 6 6 7 7 8 7 6 6 7 8 8 9 9 9 9 8 7 5 3 3 2 1 1 3 4 4 3 4 4 4 4 5 6 8 8 7 8 11 12 13 13 13 15 16 17 19 19 19 18 17 19 19 16 16 16 16 17 17 18 19 21 22 22 23 24 23 23 22 20 19 19 18 16 14 13 14 15 16 16 16 15
4 5 5 5 5 5 6 6 7 7 7 6 6 7 7 8 8 9 9 9 8 8 6 5 5 3 2 3 3 4 3 2 3 2 3 4 5 6 6 7 9 11 13 15 16 17 17 17 19 21 20 19 20 20 21 22 21 21 20 19 19 19 19 19 20 23 23 24 25 25 25 25 24 22 21 21 20 18 16 15 14 15 16 16 16
2 3 3 4 5 5 5 5 5 5 5 5 5 5 6 7 7 7 8 8 8 8 7 6 6 5 4 3 4 4 3 2 1 1 2 3 5 6 6 6 8 9 11 14 17 16 15 17 20 22 22 22 20 19 20 20 20 22 23 23 23 23 24 22 22 22 23 24 25 26 27 27 26 25 24 23 22 22 20 17 16 16 16 15 15
4 3 2 2 3 3 4 3 3 4 3 4 4 4 5 6 6 7 7 8 8 8 8 8 6 6 5 5 5 4 3 2 2 2 3 4 4 5 6 7 8 8 9 12 14 13 11 12 13 15 20 21 17 16 17 16 16 17 17 20 22 24 26 26 26 25 24 24 25 26 28 28 29 28 27 26 25 25 23 22 20 18 17 17 16
5 5 3 1 2 1 2 1 1 2 2 2 2 3 5 4 5 6 7 8 9 9 9 9 9 8 6 5 5 5 4 5 5 5 5 5 4 5 6 7 8 9 9 9 9 8 8 10 9 9 12 12 12 13 10 9 12 15 16 18 19 20 22 23 24 24 24 25 26 26 27 28 29 30 30 29 28 28 27 26 25 22 20 20 19
7 7 6 4 4 3 2 1 1 1 1 1 2 3 3 2 3 5 6 7 8 8 9 9 9 9 8 7 6 5 5 5 5 4 4 4 4 6 6 7 9 9 8 7 7 7 6 7 8 7 8 9 13 15 14 14 17 19 20 20 20 21 21 20 20 20 22 24 27 28 27 27 28 30 32 32 31 31 30 29 28 27 24 23 22
8 9 8 6 6 6 5 4 4 3 3 3 2 2 2 1 2 4 5 6 7 7 8 8 9 9 9 8 6 5 7 6 5 4 5 5 5 6 6 6 8 9 9 8 6 5 5 5 6 6 6 7 9 10 12 15 18 20 21 21 23 25 24 23 22 21 21 23 25 28 29 29 29 29 30 32 33 33 33 32 31 30 28 26 25
10 11 10 7 8 8 7 8 7 6 7 6 4 5 4 2 3 4 4 5 6 6 6 7 8 8 9 9 6 5 8 7 5 6 6 6 5 5 6 6 6 8 9 10 8 7 7 6 6 6 5 6 7 8 10 11 13 16 18 19 22 22 22 23 23 23 22 21 22 24 27 28 30 30 29 30 32 34 36 35 34 33 32 30 29
12 13 12 9 10 10 9 10 10 8 9 8 7 8 5 4 5 5 4 5 5 5 5 6 7 8 8 8 6 5 8 8 7 8 8 8 6 4 5 6 7 7 8 10 12 10 9 9 8 8 8 7 8 9 11 11 13 17 19 22 22 20 21 23 24 26 25 23 22 23 24 25 28 30 31 30 30 33 36 38 37 36 35 34 33
14 15 14 12 12 12 11 12 12 11 11 10 10 10 7 7 7 6 6 5 3 4 5 5 6 7 7 8 6 5 8 9 8 9 9 8 7 6 6 6 7 8 9 11 14 13 11 11 11 11 11 11 12 13 14 15 17 20 21 22 21 19 21 23 25 28 27 25 24 24 24 24 25 28 30 31 32 32 34 37 38 38 38 38 35
16 16 16 14 14 14 13 14 14 14 14 13 13 12 10 10 8 7 8 7 3 6 6 5 6 5 5 7 6 6 9 8 6 9 10 9 10 10 8 7 7 8 9 10 14 16 15 14 15 15 14 15 15 15 16 17 18 19 18 17 18 19 20 22 24 25 23 23 25 26 26 26 25 26 27 29 31 32 33 34 36 38 39 39 38
17 17 17 16 16 16 15 15 15 16 16 16 15 14 12 11 10 9 11 9 5 7 8 8 7 5 3 3 4 8 11 9 9 9 7 8 11 10 8 8 8 8 9 11 14 17 16 15 15 16 15 16 16 16 16 17 18 18 17 17 19 20 20 21 21 20 19 20 23 25 27 28 28 27 27 27 29 32 33 33 34 36 38 39 39
17 18 18 18 18 18 17 17 17 16 17 17 17 16 14 13 13 12 13 12 7 9 10 9 7 8 7 3 3 7 10 11 12 10 8 9 10 8 8 9 10 10 10 12 14 16 17 16 15 16 16 16 17 17 16 17 18 18 19 18 19 19 19 19 19 18 18 19 21 23 25 27 29 29 28 28 29 30 32 33 32 33 34 36 37
18 18 19 18 19 19 20 19 19 18 18 18 18 19 16 15 16 17 16 14 10 12 13 9 7 9 10 7 6 9 11 11 12 12 11 11 10 9 10 11 12 13 13 13 15 16 18 18 16 16 16 16 16 16 16 17 18 19 19 19 18 18 17 17 17 17 18 20 23 24 26 27 28 29 30 30 30 30 31 32 32 32 33 34 34
19 19 19 19 20 21 21 21 20 20 20 19 19 20 18 17 17 18 17 16 14 14 13 9 9 10 10 10 8 8 10 11 12 12 10 10 12 13 13 12 12 13 13 13 14 16 17 19 18 17 17 17 18 17 17 17 18 19 19 19 18 18 17 17 17 17 19 22 24 25 27 29 29 30 30 31 32 32 33 33 33 33 34 34 35
21 21 21 22 22 23 23 22 21 21 20 19 20 20 19 18 18 18 17 16 15 14 12 11 12 12 12 12 10 10 11 12 13 12 12 14 16 16 16 14 12 12 14 14 15 16 18 20 21 20 19 19 19 18 17 18 19 19 18 18 18 18 18 19 19 19 20 23 25 26 28 29 30 32 32 32 33 34 35 35 35 35 35 35 36
21 21 22 23 24 24 24 23 22 21 20 19 19 19 18 18 19 18 18 16 15 14 13 14 15 15 14 14 13 13 14 14 14 15 16 18 20 19 19 18 16 16 17 17 17 17 18 20 21 21 20 20 20 20 18 17 18 19 18 18 18 18 19 20 21 21 20 21 23 25 27 29 30 32 32 31 32 34 36 36 37 37 37 37 37
19 20 21 23 24 24 23 22 22 21 21 21 20 19 19 18 18 18 18 18 17 16 16 15 14 15 15 15 15 16 16 16 16 16 17 19 21 21 21 20 20 19 19 19 18 18 18 19 20 20 20 19 19 20 18 17 18 19 19 19 19 18 18 18 18 18 18 18 19 21 23 26 28 30 31 31 31 31 34 36 37 38 38 38 38
19 19 20 22 22 22 23 23 23 23 22 22 22 22 21 19 19 18 18 19 19 18 18 17 16 17 18 17 17 18 18 18 18 18 20 21 21 21 21 21 21 21 21 21 20 19 19 19 19 19 19 18 18 18 18 17 17 18 17 17 18 17 15 16 17 17 17 18 19 20 20 22 24 27 29 31 31 30 31 34 37 39 38 38 38
20 20 20 23 24 24 24 23 23 25 24 23 23 24 23 21 21 20 18 18 18 17 17 17 17 18 19 18 20 20 21 21 22 22 23 23 23 23 22 22 22 22 22 22 21 20 19 19 20 19 19 19 18 17 17 16 16 16 16 16 18 19 19 20 21 21 21 21 21 21 21 21 22 24 26 28 28 27 26 28 32 35 37 38 38
19 20 21 25 28 28 25 23 23 25 26 26 26 25 23 23 24 21 19 17 17 17 17 17 17 18 19 20 21 23 24 25 25 25 26 26 26 26 25 23 23 23 23 23 23 23 21 21 20 20 20 20 19 18 18 18 17 18 19 19 20 21 21 22 23 21 19 19 21 22 22 21 21 23 24 24 25 26 25 27 28 30 32 34 36
18 20 21 25 27 27 26 25 25 27 28 29 30 29 28 29 27 21 19 20 19 20 20 19 18 18 19 20 21 23 25 26 26 27 28 28 28 28 28 27 25 24 24 25 26 26 26 26 25 23 22 22 21 20 20 20 19 19 19 19 19 19 19 19 20 18 15 14 17 20 20 20 20 22 23 22 23 25 27 30 31 29 29 30 32
17 18 20 22 22 21 23 24 26 29 31 32 33 32 33 35 32 26 23 23 22 21 20 20 20 19 19 20 21 23 25 27 27 28 30 30 31 30 30 30 29 28 27 27 27 27 28 29 29 28 26 24 23 20 18 18 18 18 18 18 18 18 19 20 21 20 17 15 17 20 21 19 19 21 22 21 21 22 25 29 30 28 27 28 28
16 16 16 17 16 17 19 21 23 28 33 35 35 34 34 35 35 31 27 25 23 21 20 21 21 21 21 22 23 24 24 26 27 28 28 28 29 29 30 31 31 30 30 29 29 28 28 29 30 31 30 30 29 27 23 21 21 20 19 19 19 20 21 22 22 22 20 17 17 20 23 21 19 21 23 22 22 22 24 27 29 29 30 30 30
17 16 16 15 16 17 18 19 23 28 31 34 35 35 34 34 35 32 29 27 25 23 22 22 22 23 24 24 24 24 24 25 25 26 25 25 26 27 29 30 30 29 29 30 30 31 31 31 32 33 31 30 31 31 29 27 27 26 24 23 23 23 23 24 24 24 24 23 22 23 26 25 21 22 25 24 23 25 25 27 30 32 34 34 35
16 17 17 17 16 16 17 22 27 29 30 32 34 35 35 35 34 31 29 29 26 23 22 22 23 24 24 24 24 25 25 25 25 26 26 26 27 29 29 30 30 29 29 28 28 29 29 28 28 28 24 22 23 25 25 25 28 30 32 33 33 32 32 32 31 30 28 28 27 27 31 30 24 23 26 23 22 24 25 26 30 32 34 34 33
15 16 17 16 15 15 19 26 31 31 30 31 33 35 35 34 31 29 28 26 23 21 22 22 23 23 23 23 24 24 24 24 26 28 28 27 28 30 30 30 29 28 28 27 27 28 28 27 27 26 25 24 26 27 27 27 29 31 33 36 37 37 37 37 34 30 26 24 23 24 30 31 25 24 27 25 23 24 23 25 30 32 32 34 33
14 15 17 14 12 17 24 29 31 31 30 29 31 32 32 31 28 26 24 21 19 18 19 19 19 18 19 21 23 24 25 25 26 28 28 27 28 28 28 28 28 27 28 28 28 28 28 29 30 30 32 34 35 37 36 35 35 34 34 38 38 35 35 35 32 29 25 22 19 19 24 27 24 24 27 26 24 25 24 25 30 31 31 33 33
13 16 18 16 16 22 28 29 29 29 28 28 29 30 29 27 25 21 18 16 14 14 14 14 14 14 15 20 23 25 25 24 24 27 28 28 28 27 27 28 28 27 27 27 27 26 25 25 26 27 29 31 33 36 38 39 40 39 40 44 42 36 34 32 30 28 27 25 22 19 22 25 22 21 24 23 23 25 24 24 29 32 31 33 34
15 18 22 22 22 25 27 26 26 27 27 28 29 28 26 23 19 17 15 13 11 10 10 11 12 13 15 18 21 23 22 21 23 27 29 29 29 28 29 28 27 26 24 23 22 22 22 24 24 24 25 25 25 26 27 28 31 33 36 41 42 39 37 34 31 29 29 27 20 18 23 26 23 21 22 21 21 23 20 21 29 32 29 28 32
Wind_Direction
214 214 214 229 228 220 215 222 236 227 224 224 214 221 224 217 218 225 233 231 230 231 219 225 227 204 206 225 217 212 214 214 217 211 200 207 227 224 216 229 232 230 233 227 217 201 199 199 181 177 179 175 184 192 198 202 206 211 206 200 198 198 200 199 193 185 183 183 178 172 157 106 73 70 67 65 66 66 65 65 66 68 69 70 69
221 223 216 223 227 227 220 217 227 230 234 232 222 223 221 221 223 221 231 234 228 230 223 216 226 223 214 221 226 218 215 218 218 215 209 204 220 228 220 223 230 230 235 237 233 216 196 187 182 175 170 169 170 181 186 193 203 209 214 216 214 209 204 202 201 194 194 197 197 204 212 205 128 71 66 66 64 65 65 63 63 65 68 69 70
216 219 216 222 231 233 226 226 229 226 230 231 230 226 218 224 225 213 215 225 225 223 226 219 219 226 218 217 224 223 216 216 216 218 216 211 221 230 221 214 222 235 244 251 249 238 212 189 183 179 172 169 172 180 184 190 199 205 212 219 227 227 215 212 211 203 200 203 205 209 219 228 224 213 75 72 68 65 65 63 61 62 65 69 71
220 219 218 224 230 228 224 232 234 228 232 231 231 226 219 227 227 215 212 212 211 210 224 234 225 225 221 216 219 220 218 218 217 215 215 215 219 226 224 217 220 237 255 261 260 258 237 205 193 187 177 173 178 182 184 192 201 206 211 215 224 232 229 227 223 216 214 211 211 213 216 226 231 230 232 217 84 74 69 65 62 59 60 65 70
235 233 229 232 233 224 223 231 232 232 240 240 236 233 227 230 230 229 225 214 208 203 217 239 234 225 224 217 217 219 221 220 218 215 213 214 212 215 226 232 233 238 248 258 256 254 248 223 207 196 184 182 183 183 187 194 201 207 214 216 221 229 233 234 230 223 222 221 219 219 218 223 232 235 235 241 239 123 81 74 67 61 58 59 65
243 247 238 235 239 236 230 231 235 240 248 249 243 241 237 233 233 236 235 225 222 217 225 242 233 223 226 220 216 218 220 220 219 217 214 215 212 212 220 234 246 248 245 248 248 245 238 219 207 201 188 188 186 184 189 192 199 207 213 217 221 226 231 235 236 230 228 229 229 228 225 224 229 236 238 240 246 250 247 87 76 67 61 56 58
239 253 248 238 242 247 243 237 241 248 252 250 246 245 244 240 234 234 241 235 229 230 237 235 215 213 221 222 220 218 219 221 221 220 219 219 218 217 216 218 233 247 248 243 238 236 231 211 197 197 189 190 192 190 189 185 192 202 206 213 217 224 229 234 240 240 235 233 234 234 232 230 230 234 239 241 244 249 257 264 76 72 65 57 53
234 243 248 242 242 246 249 247 246 247 248 246 245 246 248 249 238 229 239 245 233 235 237 222 210 219 221 221 220 218 221 222 222 221 222 224 222 220 220 217 219 232 242 240 236 231 224 213 199 192 191 196 203 204 199 184 187 189 189 200 206 213 222 229 241 248 245 238 236 237 237 236 233 232 236 240 244 247 251 258 264 264 65 56 49
239 248 252 246 248 250 251 251 247 242 243 244 242 239 240 243 240 233 235 242 236 236 234 219 220 233 232 226 220 219 224 223 224 224 225 228 228 224 222 221 219 222 226 229 238 237 224 219 212 203 200 202 220 232 220 194 191 187 175 181 188 192 200 213 234 248 253 249 240 240 240 238 237 235 236 239 242 246 249 252 256 260 261 331 37
223 258 270 254 252 254 253 251 247 243 240 242 243 241 237 235 238 237 235 238 235 230 232 227 223 231 238 238 231 230 231 224 224 225 226 229 231 230 227 224 222 221 222 222 229 237 236 231 221 217 216 210 217 235 240 225 210 193 177 178 172 168 171 185 218 243 253 254 245 239 239 238 237 236 236 237 241 244 248 250 252 256 261 262 292
224 237 255 265 267 265 261 255 254 253 242 241 247 248 245 239 239 240 237 239 237 227 226 231 228 230 237 238 234 235 243 246 243 236 232 229 226 230 232 229 228 225 224 223 221 226 240 244 234 229 230 226 224 226 234 234 224 208 190 183 167 155 150 153 187 242 251 254 252 242 236 237 236 235 235 236 238 241 245 249 252 253 255 260 265
245 251 248 252 260 279 276 263 265 273 261 247 249 253 253 246 242 243 241 241 239 229 226 234 233 232 235 237 236 240 254 256 258 259 252 240 230 230 234 234 233 230 226 227 225 222 231 242 241 237 236 235 231 228 230 229 221 219 216 199 178 163 153 147 156 224 253 255 260 254 239 235 238 238 238 238 239 240 242 246 251 255 255 258 262
248 253 257 257 247 271 275 267 274 283 278 264 259 262 261 255 244 242 251 251 247 241 238 242 246 245 244 245 246 248 256 254 256 261 262 272 259 238 235 237 233 233 230 227 229 227 227 233 236 238 240 243 244 241 236 232 226 222 225 226 219 203 179 171 179 194 247 260 266 267 252 239 241 244 243 242 243 242 242 245 248 254 257 259 261
257 229 276 316 278 283 284 280 281 272 270 271 278 270 259 261 248 242 259 259 255 255 247 243 247 254 256 260 260 258 259 261 266 264 256 265 273 248 236 241 236 231 230 228 229 230 231 230 230 233 234 238 251 256 246 235 232 226 224 229 236 246 235 220 236 245 246 266 267 271 266 255 247 246 248 248 247 246 244 245 246 249 254 258 261
19 79 67 6 11 16 316 310 304 297 301 297 303 289 263 265 251 238 246 237 241 250 243 241 245 252 258 265 270 268 267 265 265 265 256 257 266 254 238 242 238 232 232 232 232 232 233 233 232 235 234 230 241 258 259 245 239 232 227 234 237 246 252 245 249 252 250 257 266 271 274 269 255 247 249 249 249 250 246 244 244 245 247 251 256
69 76 77 50 67 74 5 328 329 350 1 353 358 358 341 313 279 260 238 210 223 230 232 242 247 249 253 258 264 262 260 261 261 264 258 257 262 254 252 264 249 233 235 239 238 238 237 234 232 232 233 230 229 241 255 255 252 242 230 233 238 242 249 252 254 254 254 258 261 270 278 275 262 249 245 245 246 247 245 241 240 242 242 244 248
84 81 93 89 81 86 64 16 2 21 20 3 1 4 11 13 1 11 24 61 193 194 238 252 248 237 237 242 248 244 238 239 260 275 264 257 254 242 254 277 262 229 229 231 231 233 236 238 236 233 232 235 236 238 244 249 256 256 246 239 240 242 245 249 253 257 261 261 259 265 273 275 270 254 244 243 243 243 244 241 237 239 240 241 243
96 97 107 101 96 101 89 56 22 40 50 30 16 1 12 27 18 29 30 16 28 29 12 319 259 227 229 233 229 226 232 235 243 271 274 256 241 240 262 279 267 250 246 238 228 223 224 228 232 236 238 242 244 242 241 240 244 255 257 249 241 239 242 245 250 254 258 259 258 259 264 270 273 266 252 246 243 242 243 244 241 240 241 243 244
102 101 102 98 100 109 106 89 57 54 61 52 50 31 16 335 335 79 74 35 33 21 16 14 12 16 252 249 236 225 227 232 231 238 263 273 256 254 270 278 265 255 251 250 249 238 228 223 223 232 240 248 252 250 251 248 244 249 255 255 250 243 242 245 249 252 253 256 256 256 258 264 268 268 262 253 248 244 241 242 241 240 243 245 247
94 89 87 89 95 95 92 88 69 56 54 48 55 63 58 42 33 90 121 40 90 94 39 14 9 24 2 335 321 290 253 248 240 229 239 274 302 274 243 255 269 266 259 255 256 257 247 231 226 229 231 238 242 245 254 252 247 250 252 258 262 256 248 246 247 250 251 252 253 253 254 256 260 262 261 258 255 250 243 241 241 240 243 246 249
98 99 95 88 87 88 89 95 91 77 70 66 69 73 71 70 69 73 73 62 83 119 87 36 9 150 26 356 344 338 321 312 325 286 259 267 295 300 267 241 255 271 273 268 266 267 262 253 251 252 251 249 242 242 252 251 246 246 245 251 260 258 253 249 247 247 249 251 250 250 251 251 253 256 257 257 256 255 249 245 244 244 245 247 250
99 96 97 89 81 82 81 88 95 92 82 73 68 67 67 70 71 72 76 75 73 79 84 67 46 186 133 35 1 351 337 325 343 350 320 292 289 302 300 280 263 261 263 267 272 273 270 269 267 263 259 257 255 252 254 255 253 250 247 252 257 256 252 249 248 247 247 249 249 248 248 246 246 249 252 255 255 256 255 251 250 250 251 250 249
109 97 98 92 82 79 74 72 80 84 80 72 63 60 62 65 67 68 70 73 74 72 73 72 60 54 102 105 43 16 21 7 354 347 332 313 301 303 309 302 287 279 276 274 272 270 271 272 268 265 265 262 261 261 261 263 262 259 257 260 261 259 255 250 249 249 248 248 249 248 247 244 242 242 245 250 255 257 255 252 251 252 255 256 253
137 117 102 94 89 80 76 70 65 68 75 78 74 68 63 60 61 64 62 62 65 63 62 66 66 55 52 81 72 41 32 25 3 330 303 295 297 301 302 302 296 292 291 287 285 283 277 269 264 267 271 269 269 274 275 274 268 262 259 259 258 256 256 254 251 251 251 250 249 249 248 246 243 240 240 243 249 252 250 249 249 249 253 257 259
179 175 152 103 107 91 87 87 68 65 62 63 71 66 63 55 47 52 53 49 49 48 48 47 52 58 48 49 59 50 32 5 16 26 335 315 313 310 306 304 299 294 291 289 294 302 298 288 277 266 265 267 276 288 293 291 282 271 266 262 256 251 253 255 254 255 256 254 252 251 250 249 246 242 239 238 242 246 248 249 249 247 249 254 258
191 201 222 187 158 152 129 135 70 66 50 46 49 41 61 57 25 34 40 39 41 40 39 37 37 44 48 50 42 27 26 17 17 30 4 346 340 321 315 316 308 299 294 286 283 283 284 291 289 267 262 260 254 254 265 280 278 273 270 269 268 263 260 259 256 255 254 251 251 253 253 252 249 246 242 238 237 241 245 248 249 249 249 252 253
196 207 231 225 209 239 246 238 280 300 308 340 1 7 49 64 9 18 24 25 33 35 39 40 37 37 38 51 51 12 12 28 21 15 355 341 330 320 322 327 322 312 304 295 282 269 265 272 269 261 263 258 246 239 237 242 251 260 265 269 273 274 272 268 261 256 251 248 248 250 252 252 252 250 246 242 239 239 241 244 247 249 249 250 251
201 210 235 242 234 254 268 267 278 281 282 297 299 313 342 358 336 352 2 8 17 24 30 30 33 37 33 44 58 9 5 26 18 351 339 339 336 328 326 326 323 320 318 314 303 293 288 275 267 264 262 268 277 275 263 256 256 260 266 269 270 270 271 271 267 261 254 249 247 248 250 252 252 251 249 246 243 241 240 241 244 246 247 248 250
202 215 240 252 249 258 261 264 277 278 281 293 279 283 308 292 295 324 339 344 353 5 11 13 20 28 27 35 49 18 12 19 5 355 354 352 351 334 324 320 313 312 314 312 306 304 308 305 292 287 281 272 276 278 274 272 270 267 267 270 270 269 267 266 266 265 260 256 254 252 252 252 252 251 250 248 246 243 242 241 242 244 245 246 248
203 221 245 253 255 264 261 263 273 273 277 285 276 283 293 263 280 299 303 317 328 334 344 354 4 12 16 22 29 17 10 10 4 4 1 355 356 343 322 313 304 299 300 298 295 295 301 304 298 295 297 287 272 270 269 265 265 264 264 267 269 268 266 263 262 262 261 259 260 259 257 255 253 252 252 250 248 245 244 243 243 244 245 245 245
209 226 246 248 252 263 262 263 272 272 273 274 270 280 274 251 270 279 281 303 295 285 312 327 340 353 358 5 18 11 3 10 5 354 353 352 352 342 316 299 292 287 285 287 287 288 290 289 284 283 286 285 280 278 274 268 266 268 270 272 272 271 268 264 262 263 264 262 260 261 261 259 255 254 254 252 250 248 246 244 244 245 246 246 246
214 225 242 243 244 256 258 261 268 269 271 270 268 272 264 256 264 258 268 287 250 252 286 302 316 334 343 348 349 342 354 8 355 345 350 344 339 340 328 308 294 284 280 278 278 284 289 286 281 279 281 282 282 281 280 278 277 279 279 276 273 272 269 267 267 268 268 264 259 258 258 258 258 256 256 254 252 250 249 247 246 245 247 248 249
217 222 236 238 235 242 246 248 255 261 266 267 265 265 257 253 252 238 254 275 246 224 259 285 298 300 304 325 316 322 341 349 343 348 346 323 326 334 326 310 297 286 281 278 278 283 288 286 281 280 279 278 279 278 278 278 276 277 278 275 276 278 277 276 277 277 275 270 267 264 259 256 256 256 256 256 254 252 251 250 249 246 245 247 249
222 223 231 232 228 230 232 233 238 245 253 257 261 262 252 245 249 247 255 270 247 219 245 272 278 280 292 296 263 293 319 332 338 343 330 319 325 321 305 298 292 285 279 277 280 283 284 284 281 281 281 279 278 276 275 274 273 275 277 278 280 281 280 280 278 278 276 271 269 268 264 258 254 253 254 254 254 254 253 252 250 248 246 245 247
227 226 228 228 227 228 228 229 229 230 237 243 249 256 252 243 252 259 264 268 252 237 250 257 240 256 285 299 288 296 315 325 329 333 329 325 324 310 301 300 297 293 287 280 280 281 283 285 284 283 283 280 277 277 275 273 273 275 278 279 279 278 278 277 274 273 272 268 265 266 267 266 260 255 253 252 253 254 253 252 250 249 248 248 249
229 229 229 228 228 230 229 229 228 227 229 230 235 247 250 244 247 255 262 265 258 254 258 243 220 235 265 282 286 290 301 310 316 324 323 314 313 312 309 304 298 296 292 286 283 282 283 285 285 284 283 281 279 278 278 276 275 275 277 277 277 277 275 273 271 269 265 263 264 264 265 266 266 262 258 254 252 252 253 253 251 251 251 251 252
230 229 229 230 230 231 230 229 230 230 230 227 228 237 243 243 243 245 250 255 254 252 247 234 232 245 260 271 275 276 286 300 309 313 312 310 314 315 312 305 296 288 285 282 280 279 279 282 285 285 285 284 283 280 278 277 278 277 276 274 273 274 273 271 269 268 263 260 260 261 262 264 267 268 266 259 254 252 252 252 252 252 251 251 252
233 230 230 231 230 229 228 229 230 231 232 232 232 234 238 239 240 239 240 242 243 241 238 242 251 259 264 269 274 279 288 297 304 307 311 316 317 316 314 310 304 297 292 288 286 281 279 279 282 285 285 284 284 283 281 278 278 278 278 276 273 271 271 271 272 273 272 268 265 264 265 265 266 268 270 267 260 254 252 253 253 252 251 251 251
238 233 232 233 232 228 227 228 230 231 230 231 234 237 239 238 236 234 232 233 238 242 245 250 256 262 268 273 276 283 289 293 298 304 310 313 313 313 311 309 306 302 297 294 290 284 281 279 279 280 282 282 282 283 283 280 276 276 277 278 278 276 273 272 273 275 275 272 271 270 270 272 274 273 271 271 267 261 256 255 254 254 253 252 252
243 239 236 237 235 229 225 226 229 232 231 230 232 232 233 236 236 232 226 229 238 246 251 254 256 262 270 275 278 284 288 291 296 302 306 308 308 307 305 303 301 298 295 294 291 286 283 282 280 281 281 280 280 280 282 280 277 277 277 277 278 278 276 272 270 269 270 270 270 270 270 274 278 277 275 273 271 268 265 260 256 254 254 254 254
249 246 238 237 234 226 227 232 232 232 231 229 229 231 230 232 234 232 226 226 233 240 248 256 261 267 273 277 280 284 285 289 295 299 302 304 304 304 303 301 298 296 293 292 288 284 283 282 281 282 281 280 280 279 279 277 275 277 278 277 277 277 278 276 274 272 272 270 268 266 264 263 265 268 273 276 275 272 269 266 260 256 254 254 255
249 245 239 241 239 232 237 246 240 234 232 227 225 228 230 228 228 229 224 221 228 237 246 255 262 269 276 279 283 285 286 290 293 296 298 300 302 303 303 300 297 293 289 286 283 281 279 277 278 279 279 278 277 278 278 277 276 276 275 275 276 278 280 279 278 278 277 273 270 268 265 262 258 258 262 268 272 273 270 266 266 265 262 257 255
248 243 242 248 251 248 248 247 235 230 233 233 228 226 228 226 220 215 218 226 238 247 253 258 262 268 274 278 281 285 291 296 298 299 301 301 300 300 300 299 296 292 288 286 284 281 277 275 274 273 273 275 275 276 278 278 278 277 276 276 275 276 278 277 278 279 275 271 272 271 269 264 259 257 257 257 261 267 269 268 270 271 268 262 257
251 246 245 250 257 258 252 241 230 229 237 242 235 228 228 226 218 217 228 241 249 253 256 259 263 268 272 276 282 288 295 300 302 303 304 304 304 303 302 300 298 295 293 289 286 283 280 276 274 270 268 269 270 272 275 280 282 279 275 273 272 273 273 272 274 274 272 270 272 272 270 265 261 260 259 256 253 255 260 267 270 268 264 262 259
248 246 245 246 247 249 248 240 232 232 238 241 235 229 228 227 225 230 240 247 250 251 254 259 265 271 275 280 287 293 298 301 303 304 304 305 305 304 303 301 301 300 297 294 291 288 284 280 276 273 271 268 266 264 263 264 268 272 276 276 274 273 272 271 271 272 271 267 268 273 271 265 261 261 260 258 255 251 250 256 260 260 259 261 261
245 243 247 250 245 243 243 235 227 230 234 236 233 229 229 231 233 236 240 245 249 253 258 264 270 275 279 284 290 295 298 301 302 300 298 297 296 295 295 295 295 295 293 292 292 291 288 286 283 280 277 273 269 267 264 259 257 261 267 268 264 262 262 263 265 267 266 260 260 268 270 265 261 261 261 260 258 256 253 253 254 255 256 258 258
244 241 245 252 249 243 235 225 224 230 233 233 233 231 231 233 235 235 238 245 252 257 262 269 275 279 285 291 295 298 300 300 299 296 294 295 294 292 291 289 289 288 285 284 284 284 284 284 283 282 280 273 268 267 264 260 257 256 257 256 256 257 258 261 264 267 269 267 263 263 266 265 263 261 262 260 259 259 258 257 256 255 257 259 258
245 241 244 251 248 236 226 222 225 229 230 230 231 231 231 232 232 233 238 245 253 261 269 276 282 288 294 296 297 299 300 299 298 295 295 296 296 294 294 293 291 289 285 283 281 278 278 275 272 270 268 265 262 261 259 258 257 258 259 259 259 260 262 266 269 271 273 273 267 261 262 265 263 261 263 263 261 260 257 257 257 256 257 260 259
245 242 245 248 238 224 222 224 227 230 232 232 230 228 228 229 229 231 239 248 258 269 276 282 286 290 292 294 295 297 299 300 297 295 296 297 297 297 297 295 293 290 287 285 282 278 277 275 271 269 266 262 260 259 258 258 258 259 262 264 264 264 265 268 270 270 269 268 265 259 261 264 263 261 264 265 262 258 254 254 258 257 255 256 258
247 245 241 234 222 220 223 227 232 234 234 231 226 224 224 225 226 232 242 253 264 272 277 280 282 281 281 287 293 298 302 301 296 295 298 300 301 300 297 294 291 287 285 284 282 280 278 275 275 275 273 271 268 265 263 261 259 258 259 261 263 264 264 265 267 269 269 264 260 258 261 264 264 262 264 266 263 258 251 249 254 257 256 254 255
232 233 234 231 228 231 233 235 236 233 229 225 221 219 220 221 226 236 246 255 260 266 270 272 273 275 279 286 294 299 301 296 290 293 297 298 299 298 294 291 288 284 284 285 283 281 278 274 272 271 272 274 274 274 271 267 265 261 258 259 260 259 259 261 262 265 267 264 259 256 259 264 264 261 261 263 263 260 252 245 249 253 254 250 250